EW6927 Weather Reports


Display with metric or nautical units.
time (UTC)temp
F
wind
direction
speed
MPH
gust
MPH
rain 1hr
in
rain 24hr
in
rain mn
in
humidity
%
barometer
mb
20190916170058 82 144 0.0 0.0 0.00 0.00 0.00 55 1016.5
20190916164605 82 144 0.0 0.0 0.00 0.00 0.00 53 1016.5
20190916163109 81 144 0.0 0.0 0.00 0.00 0.00 54 1016.6
20190916161531 80 144 0.0 0.0 0.00 0.00 0.00 58 1016.8
20190916160015 80 144 0.0 0.0 0.00 0.00 0.00 58 1017.0
20190916154541 79 144 0.0 0.0 0.00 0.00 0.00 60 1017.1
20190916153003 79 144 0.0 0.0 0.00 0.00 0.00 59 1017.3
20190916151705 78 144 0.0 0.0 0.00 0.00 0.00 53 1017.4
20190916150237 78 144 0.0 0.0 0.00 0.00 0.00 65 1017.5
20190916144628 77 144 0.0 0.0 0.00 0.00 0.00 68 1017.7
20190916143135 76 144 0.0 0.0 0.00 0.00 0.00 69 1017.8
20190916141653 75 144 0.0 0.0 0.00 0.00 0.00 73 1017.7
20190916140136 75 144 0.0 0.0 0.00 0.00 0.00 76 1017.7
20190916134653 74 144 0.0 0.0 0.00 0.00 0.00 79 1017.7
20190916133115 73 144 0.0 0.0 0.00 0.00 0.00 78 1017.8
20190916131527 72 144 0.0 0.0 0.00 0.00 0.00 79 1017.8
20190916130112 71 144 0.0 0.0 0.00 0.00 0.00 81 1017.6
20190916124527 70 144 0.0 0.0 0.00 0.00 0.00 81 1017.5
20190916123018 69 144 0.0 0.0 0.00 0.00 0.00 83 1017.6
20190916121514 68 144 0.0 0.0 0.00 0.00 0.00 83 1017.6
20190916120054 68 144 0.0 0.0 0.00 0.00 0.00 81 1017.5
20190916114518 68 144 0.0 0.0 0.00 0.00 0.00 81 1017.4
20190916113018 68 144 0.0 0.0 0.00 0.00 0.00 80 1017.3
20190916111515 67 144 0.0 0.0 0.00 0.00 0.00 81 1017.2
20190916110006 68 144 0.0 0.0 0.00 0.00 0.00 79 1017.2
20190916104521 68 144 0.0 0.0 0.00 0.00 0.00 78 1017.3
20190916103005 68 144 0.0 0.0 0.00 0.00 0.00 80 1017.2
20190916101524 69 144 0.0 0.0 0.00 0.00 0.00 78 1017.1
20190916100016 69 144 0.0 0.0 0.00 0.00 0.00 80 1017.1
20190916094502 69 144 0.0 0.0 0.00 0.00 0.00 80 1017.1
20190916093014 69 144 0.0 0.0 0.00 0.00 0.00 80 1017.1
20190916091501 69 144 0.0 0.0 0.00 0.00 0.00 80 1017.1
20190916090133 69 144 0.0 0.0 0.00 0.00 0.00 80 1017.1
20190916084726 69 144 0.0 0.0 0.00 0.00 0.00 79 1017.2
20190916083221 69 144 0.0 0.0 0.00 0.00 0.00 80 1017.1
20190916081718 69 144 0.0 0.0 0.00 0.00 0.00 76 1017.3
20190916080148 69 144 0.0 0.0 0.00 0.00 0.00 78 1017.2
20190916074651 69 144 0.0 0.0 0.00 0.00 0.00 76 1017.1
20190916073213 69 144 0.0 0.0 0.00 0.00 0.00 75 1017.0
20190916071643 69 144 0.0 0.0 0.00 0.00 0.00 79 1017.0
20190916070300 69 144 0.0 0.0 0.00 0.00 0.00 76 1017.1
20190916064611 69 144 0.0 0.0 0.00 0.00 0.00 77 1017.2
20190916063154 69 144 0.0 0.0 0.00 0.00 0.00 75 1017.2
20190916061655 69 144 0.0 0.0 0.00 0.00 0.00 75 1017.4
20190916060213 71 144 0.0 0.0 0.00 0.00 0.00 79 1017.3
20190916054655 71 144 0.0 0.0 0.00 0.00 0.00 79 1017.5
20190916053157 71 144 0.0 0.0 0.00 0.00 0.00 81 1017.5
20190916051608 71 144 0.0 0.0 0.00 0.00 0.00 81 1017.7
20190916050052 71 144 0.0 0.0 0.00 0.00 0.00 81 1017.8
20190916044628 70 144 0.0 0.0 0.00 0.00 0.00 81 1017.8
20190916043140 70 144 0.0 0.0 0.00 0.00 0.00 83 1017.8
20190916041618 70 144 0.0 0.0 0.00 0.00 0.00 82 1017.8
20190916040127 71 144 0.0 0.0 0.00 0.00 0.00 75 1017.9
20190916034620 71 144 0.0 0.0 0.00 0.00 0.00 71 1017.9
20190916033051 72 144 0.0 0.0 0.00 0.00 0.00 67 1018.1
20190916031552 72 144 0.0 0.0 0.00 0.00 0.00 71 1018.1
20190916030108 72 144 0.0 0.0 0.00 0.00 0.00 70 1018.0
20190916024551 73 144 0.0 0.0 0.00 0.00 0.00 67 1018.1
20190916023055 74 144 0.0 0.0 0.00 0.00 0.00 65 1018.0
20190916021617 74 144 0.0 0.0 0.00 0.00 0.00 65 1017.9
20190916020117 74 144 0.0 0.0 0.00 0.00 0.00 68 1017.9
20190916014548 74 144 0.0 0.0 0.00 0.00 0.00 66 1017.7
20190916013108 74 144 0.0 0.0 0.00 0.00 0.00 65 1017.5
20190916011630 74 144 0.0 0.0 0.00 0.00 0.00 65 1017.6
20190916010113 74 144 0.0 0.0 0.00 0.00 0.00 66 1017.5
20190916004605 75 144 0.0 0.0 0.00 0.00 0.00 66 1017.4
20190916003100 75 144 0.0 0.0 0.00 0.00 0.00 62 1017.3
20190916001642 75 144 0.0 0.0 0.00 0.00 0.00 58 1017.2
20190916000044 75 144 0.0 0.0 0.00 0.00 0.00 54 1017.2
20190915234604 75 144 0.0 0.0 0.00 0.00 0.00 56 1017.0
20190915233059 76 144 0.0 0.0 0.00 0.00 0.00 56 1016.9
20190915231546 77 144 0.0 0.0 0.00 0.00 0.00 55 1017.0
20190915230053 77 144 0.0 0.0 0.00 0.00 0.00 56 1017.0
20190915224629 79 144 0.0 0.0 0.00 0.00 0.00 55 1017.0
20190915223047 80 144 0.0 0.0 0.00 0.00 0.00 50 1017.2
20190915221640 81 144 0.0 0.0 0.00 0.00 0.00 49 1017.2
20190915220046 82 144 0.0 0.0 0.00 0.00 0.00 47 1017.2
20190915214539 83 144 0.0 0.0 0.00 0.00 0.00 46 1017.2
20190915213105 82 144 0.0 0.0 0.00 0.00 0.00 46 1017.2
20190915211526 82 144 0.0 0.0 0.00 0.00 0.00 44 1017.3
20190915210038 83 144 0.0 0.0 0.00 0.00 0.00 44 1017.4
20190915204529 83 144 0.0 0.0 0.00 0.00 0.00 46 1017.5
20190915203020 83 144 0.0 0.0 0.00 0.00 0.00 47 1017.6
20190915201532 84 144 0.0 0.0 0.00 0.00 0.00 46 1017.7
20190915200017 84 144 0.0 0.0 0.00 0.00 0.00 48 1017.8
20190915194539 83 144 0.0 0.0 0.00 0.00 0.00 47 1018.0
20190915193008 82 144 0.0 0.0 0.00 0.00 0.00 52 1018.2
20190915191506 82 144 0.0 0.0 0.00 0.00 0.00 50 1018.2
20190915190003 82 144 0.0 0.0 0.00 0.00 0.00 54 1018.4
20190915184755 82 144 0.0 0.0 0.00 0.00 0.00 54 1018.6
20190915183225 81 144 0.0 0.0 0.00 0.00 0.00 52 1018.6
20190915181713 81 144 0.0 0.0 0.00 0.00 0.00 48 1018.6
20190915180203 81 144 0.0 0.0 0.00 0.00 0.00 52 1018.8
20190915174701 81 144 0.0 0.0 0.00 0.00 0.00 54 1019.0
20190915173134 80 144 0.0 0.0 0.00 0.00 0.00 56 1019.4
20190915171628 79 144 0.0 0.0 0.00 0.00 0.00 62 1019.6